Weather History for KSSC - June, 2013

Change the Weather History Date:

Sunday, June 30, 2013

  Actual Average Record
Temperature  
Mean Temperature 80 °F -  
Max Temperature 90 °F 86 °F 105 °F (2012)
Min Temperature 71 °F 68 °F 66 °F (1999)
Cooling Degree Days 16    
Growing Degree Days 30 (Base 50)    
Moisture  
Dew Point 71 °F    
Average Humidity 86    
Maximum Humidity 100    
Minimum Humidity 46    
Precipitation  
Precipitation 0.47 in - - ()
Sea Level Pressure  
Sea Level Pressure 29.80 in    
Wind  
Wind Speed 7 mph (South)    
Max Wind Speed 16 mph    
Max Gust Speed 18 mph    
Visibility 10 miles    
Events Rain    
Averages and records for this station are not official NWS values.
T = Trace of Precipitation, MM = Missing Value Source: NWS Daily Summary

Daily Weather History Graph

Daily Weather History Graph

Search for Another Location

Airport or City:

Trip Planner

Search our weather history database for the weather conditions in past years. The results will help you decide how hot, cold, wet, or windy it might be!

Date:

Astronomy

Jun. 30, 2013 Rise Set
Actual Time 6:14 AM EDT 8:37 PM EDT
Civil Twilight 5:44 AM EDT 9:06 PM EDT
Nautical Twilight 5:09 AM EDT 9:41 PM EDT
Astronomical Twilight 4:29 AM EDT 10:21 PM EDT
Moon 12:58 AM EDT (6/30) 2:02 PM EDT (6/30)
Length of Visible Light 15h 21m
Length of Day
14h 23m
Last Quarter, 45% of the Moon is Illuminated
Jun 30
Last Quarter
Jul 8
New
Jul 15
First Quarter
Jul 22
Full
Jul 29
Last Quarter

Hourly Weather History & Observations

Time (EDT) Temp. Heat Index Dew Point Humidity Pressure Visibility Wind Dir Wind Speed Gust Speed Precip Events Conditions
12:58 AM 76.1 °F - 69.3 °F 79% 29.75 in 10.0 mi SSW 10.4 mph - N/A   Clear
1:58 AM 75.4 °F - 69.4 °F 82% 29.74 in 10.0 mi South 10.4 mph - N/A   Clear
2:58 AM 74.5 °F - 70.5 °F 87% 29.73 in 10.0 mi SSW 8.1 mph - N/A   Partly Cloudy
3:58 AM 74.3 °F - 70.3 °F 87% 29.72 in 10.0 mi SSW 6.9 mph - N/A   Clear
4:58 AM 73.6 °F - 70.0 °F 88% 29.72 in 10.0 mi SSW 5.8 mph - N/A   Clear
5:58 AM 72.9 °F - 69.8 °F 90% 29.74 in 10.0 mi SW 3.5 mph - N/A   Clear
6:58 AM 72.7 °F - 70.2 °F 92% 29.76 in 10.0 mi South 3.5 mph - N/A   Clear
7:09 AM 73.4 °F - 69.8 °F 88% 29.77 in 10.0 mi SSE 2.3 mph - N/A   Partly Cloudy
7:19 AM 73.4 °F - 71.6 °F 94% 29.77 in 10.0 mi SSE 3.5 mph - N/A   Mostly Cloudy
7:29 AM 73.4 °F - 71.6 °F 94% 29.78 in 10.0 mi South 4.6 mph - N/A   Mostly Cloudy
7:58 AM 74.1 °F - 71.1 °F 90% 29.78 in 10.0 mi South 5.8 mph - N/A   Overcast
8:18 AM 75.2 °F - 71.6 °F 89% 29.78 in 10.0 mi SSW 5.8 mph - N/A   Overcast
8:33 AM 75.2 °F - 71.6 °F 89% 29.78 in 10.0 mi South 6.9 mph - N/A   Overcast
8:58 AM 75.6 °F - 70.2 °F 83% 29.79 in 10.0 mi South 8.1 mph - N/A   Overcast
9:13 AM 77.0 °F - 69.8 °F 78% 29.79 in 10.0 mi SW 6.9 mph - N/A   Overcast
9:58 AM 77.4 °F - 70.0 °F 78% 29.79 in 10.0 mi SSW 4.6 mph - N/A   Overcast
10:08 AM 77.0 °F - 69.8 °F 78% 29.79 in 10.0 mi SSW 5.8 mph - N/A   Overcast
10:38 AM 78.8 °F - 69.8 °F 74% 29.79 in 10.0 mi SW 6.9 mph - N/A   Overcast
10:58 AM 81.0 °F 84.4 °F 69.8 °F 69% 29.79 in 10.0 mi South 9.2 mph - N/A   Mostly Cloudy
11:08 AM 82.4 °F 86.3 °F 69.8 °F 66% 29.79 in 10.0 mi SSW 9.2 mph - N/A   Mostly Cloudy
11:38 AM 82.4 °F 86.3 °F 69.8 °F 66% 29.79 in 10.0 mi SW 8.1 mph - N/A   Scattered Clouds
11:58 AM 83.8 °F 87.0 °F 68.0 °F 59% 29.79 in 10.0 mi SSW 6.9 mph - N/A   Scattered Clouds
12:58 PM 85.5 °F 88.8 °F 68.2 °F 56% 29.78 in 10.0 mi SSW 8.1 mph - N/A   Scattered Clouds
1:58 PM 88.2 °F 91.3 °F 67.6 °F 50% 29.76 in 10.0 mi Variable 4.6 mph - N/A   Scattered Clouds
2:58 PM 90.0 °F 92.8 °F 66.4 °F 46% 29.75 in 10.0 mi SE 8.1 mph - N/A   Partly Cloudy
3:58 PM 84.7 °F 87.9 °F 67.8 °F 57% 29.75 in 10.0 mi SSE 12.7 mph - N/A   Clear
4:24 PM 80.6 °F 82.7 °F 66.2 °F 61% 29.75 in 10.0 mi SSE 16.1 mph - N/A Rain Light Rain
4:58 PM 76.3 °F - 70.0 °F 81% 29.79 in 9.0 mi South 6.9 mph - 0.02 in Rain Light Rain
5:58 PM 75.0 °F - 72.9 °F 93% 29.80 in 6.0 mi SE 2.3 mph - 0.14 in Rain Light Rain
6:28 PM 75.2 °F - 73.4 °F 94% 29.80 in 8.0 mi SSE 3.5 mph - N/A Rain Light Rain
6:43 PM 75.2 °F - 75.2 °F 100% 29.78 in 7.0 mi SSE 13.8 mph 18.4 mph N/A Rain Light Rain
6:58 PM 74.8 °F - 72.9 °F 94% 29.79 in 9.0 mi South 10.4 mph - 0.09 in Rain Light Rain
7:18 PM 75.2 °F - 71.6 °F 89% 29.80 in 10.0 mi SSE 5.8 mph - N/A   Clear
7:28 PM 75.2 °F - 73.4 °F 94% 29.82 in 10.0 mi South 8.1 mph - N/A   Partly Cloudy
7:29 PM 75.2 °F - 73.4 °F 94% 29.82 in 10.0 mi South 8.1 mph - N/A   Light Drizzle
7:58 PM 73.2 °F - 71.2 °F 93% 29.82 in 6.0 mi South 5.8 mph - 0.05 in Rain Rain
8:38 PM 73.4 °F - 71.6 °F 94% 29.82 in 7.0 mi SE 4.6 mph - N/A Rain Light Rain
8:48 PM 73.4 °F - 71.6 °F 94% 29.83 in 10.0 mi SSE 3.5 mph - N/A Rain Light Rain
8:52 PM 73.4 °F - 71.6 °F 94% 29.83 in 10.0 mi SE 3.5 mph - N/A Rain Light Rain
8:58 PM 72.5 °F - 71.4 °F 96% 29.83 in 10.0 mi SSE 2.3 mph - 0.16 in Rain Light Rain
9:04 PM 73.4 °F - 71.6 °F 94% 29.83 in 10.0 mi SSE 2.3 mph - N/A   Scattered Clouds
9:09 PM 73.4 °F - 71.6 °F 94% 29.83 in 10.0 mi SSE 2.3 mph - N/A   Mostly Cloudy
9:11 PM 73.4 °F - 71.6 °F 94% 29.83 in 10.0 mi SE 2.3 mph - N/A   Mostly Cloudy
9:16 PM 73.4 °F - 71.6 °F 94% 29.83 in 10.0 mi SE 2.3 mph - N/A   Mostly Cloudy
9:18 PM 73.4 °F - 71.6 °F 94% 29.83 in 10.0 mi SE 3.5 mph - N/A   Mostly Cloudy
9:28 PM 73.4 °F - 71.6 °F 94% 29.83 in 10.0 mi ESE 3.5 mph - N/A   Mostly Cloudy
9:43 PM 73.4 °F - 71.6 °F 94% 29.83 in 10.0 mi SE 2.3 mph - N/A   Overcast
9:53 PM 73.4 °F - 71.6 °F 94% 29.84 in 10.0 mi South 2.3 mph - N/A   Overcast
9:58 PM 72.7 °F - 71.2 °F 95% 29.84 in 10.0 mi SSE 2.3 mph - 0.01 in   Overcast
10:13 PM 73.4 °F - 71.6 °F 94% 29.84 in 10.0 mi South 3.5 mph - N/A   Overcast
10:23 PM 73.4 °F - 71.6 °F 94% 29.84 in 10.0 mi South 3.5 mph - N/A   Overcast
10:58 PM 73.4 °F - 71.6 °F 94% 29.84 in 10.0 mi SSE 2.3 mph - N/A   Mostly Cloudy
11:04 PM 73.4 °F - 71.6 °F 94% 29.84 in 10.0 mi SE 3.5 mph - N/A   Mostly Cloudy
11:19 PM 71.6 °F - 71.6 °F 100% 29.84 in 10.0 mi SE 3.5 mph - N/A   Mostly Cloudy
11:41 PM 73.4 °F - 71.6 °F 94% 29.85 in 10.0 mi SSE 5.8 mph - N/A   Overcast
11:58 PM 72.7 °F - 71.8 °F 97% 29.85 in 10.0 mi SSE 4.6 mph - N/A   Overcast